Terminal Aerodrome Forecast
Issued by NWS

Home | Current Version | Previous Version | Graphics & Text | Print | Product List | Glossary On
Versions: 1 2 3 4 5 6 7 8 9 10 11 12 13 14 15 16 17 18 19 20 21 22
000
FTUS43 KABR 221200 AAA
TAFPIR
TAF AMD
KPIR 221208Z 2212/2312 30006KT P6SM BKN010
     FM221500 VRB06KT P6SM SCT012 SCT150
     FM221700 06006KT P6SM SCT120
     FM230100 10006KT P6SM SKC=

USA.gov is the U.S. government's official web portal to all federal, state and local government web resources and services.